User: anonymous   Login
Location: Allen Fire Department Station 4
(33.1073°N, 96.6988°W)
Time: 11:27:41
(UTC+00:00)
Language:

Okean O Rocket - Orbit

View from above orbital plane
View from above orbital plane
View from above satellite
View from above satellite

Ground track
Ground track

The orbit data is extracted from the following two-line orbital elements,

1 25861U 99039B   22142.83268677  .00000727  00000-0  10613-3 0  9990
2 25861  98.1803 169.4064 0016685  58.2138 302.0696 14.78811516231718
Epoch (UTC): 22 May 2022 19:59:04
Eccentricity: 0.0016685
inclination: 98.1803°
perigee height: 621 km
apogee height: 645 km
right ascension of ascending node: 169.4064°
argument of perigee: 58.2138°
revolutions per day: 14.78811516
mean anomaly at epoch: 302.0696°
orbit number at epoch: 23171

The dashed part of the orbit path shows where the satellite is in the earth's shadow,  

DLR